Regional Weather Roundup
Issued by NWS Northern Indiana

Home | Current Version | Previous Version | Text Only | Print | Product List | Glossary On
Versions: 1 2 3 4 5 6 7 8 9 10 11 12 13 14 15 16 17 18 19 20 21 22 23 24 25 26 27 28 29 30 31 32 33 34 35 36 37 38 39 40 41 42 43 44 45 46 47 48 49 50
000
ASUS43 KIWX 282010
RWRIWX

KIWX WEATHER ROUNDUP
NATIONAL WEATHER SERVICE NORTHERN INDIANA
400 PM EDT FRI APR 28 2017

NOTE: "FAIR" INDICATES FEW OR NO CLOUDS BELOW 12,000 FEET WITH NO
SIGNIFICANT WEATHER AND/OR OBSTRUCTIONS TO VISIBILITY.

* THESE STATIONS ARE NOT UNDER NWS QUALITY CONTROL. THEY ALSO MAY NOT
  REPORT WEATHER SUCH AS PRECIPITATION OR FOG.

INZ001>027-282100-
NORTHERN INDIANA

CITY           SKY/WX    TMP DP  RH WIND       PRES   REMARKS
GARY*          CLOUDY    61  43  51 SE7       29.91F
VALPARAISO     CLOUDY    60  47  61 SE12G17   29.91R
MICHIGAN CITY* CLOUDY    59  45  58 SE9       29.92R
LAPORTE*       CLOUDY    59  46  60 SE12      29.92S
KNOX*          MOSUNNY   61  23  23 S16G24    29.91F
SOUTH BEND     CLOUDY    60  44  55 SE12      29.93F
ELKHART*       CLOUDY    61  41  48 S12       29.94F
GOSHEN         CLOUDY    61  43  51 S20G26    29.96S
MONTICELLO*    LGT RAIN  55  51  88 E6        29.88F
LOGANSPORT*    LGT RAIN  54  50  87 E7        29.91F
ROCHESTER*     LGT RAIN  59  50  72 SE10      29.94F
WARSAW*        CLOUDY    59  45  58 S9        29.95F
ANGOLA*        PTSUNNY   59  48  67 S9        29.95F
FORT WAYNE     LGT RAIN  56  49  77 S7        30.00R
HUNTINGTON*    RAIN      54  51  89 SE5       29.98F
PERU/GRISSOM   LGT RAIN  54  54 100 SE7       29.93F
MARION*        CLOUDY    54  50  87 E8        29.94F FOG

$$
INZ028>050-282100-
CENTRAL INDIANA

CITY           SKY/WX    TMP DP  RH WIND       PRES   REMARKS
LAFAYETTE      LGT RAIN  53  53 100 SE6       29.89F
KOKOMO*        LGT RAIN  54  51  90 E9        29.93F
MUNCIE*        CLOUDY    58  51  78 SE10      29.96F
INDIANAPOLIS   CLOUDY    62  50  64 E8        29.91F

$$
MIZ043>046-050>051-056>058-064>065-071>073-077>080-282100-
SOUTHWEST LOWER MICHIGAN

CITY           SKY/WX    TMP DP  RH WIND       PRES   REMARKS
BATTLE CREEK   CLOUDY    59  43  55 SW9       29.96F
BENTON HARBOR  CLOUDY    56  45  66 VRB5      29.91F
COLDWATER*     CLOUDY    58  41  52 SE6       29.95F
HILLSDALE*     CLOUDY    57  41  54 S5        29.97F
HOLLAND        CLOUDY    54  44  69 W5        29.95F
GRAND RAPIDS   CLOUDY    60  45  57 SW10      29.94F
KALAMAZOO      CLOUDY    59  40  49 SE5       29.95F
STURGIS*       CLOUDY    59  42  53 S5        29.93F
THREE RIVERS*  CLOUDY    59  43  55 SE8       29.92F

$$
OHZ001>008-015>018-024>025-282100-
NORTHWEST OHIO

CITY           SKY/WX    TMP DP  RH WIND       PRES   REMARKS
WAUSEON*       PTSUNNY   61  43  51 S10       29.98F
DEFIANCE       CLOUDY    57  47  69 S10       30.01R
FINDLAY        LGT RAIN  59  47  64 SW9       30.02R
TOLEDO EXPRESS CLOUDY    59  43  55 S7        29.98F
TOLEDO METCALF LGT RAIN  60  48  64 S12       30.00F
LIMA           LGT RAIN  57  49  74 SW7       30.04R

$$
AND FOR LAKE MICHIGAN COASTAL AND OPEN LAKE BUOY OBSERVATIONS

STATION/POSITION TEMP    WIND        PRES    VSBY  WAVE
                 AIR SEA DIR/SP/G                  HT/PER
                 (F)     (DEG/KT/KT) (MB)    (MI)  (FT/S)
CALUMET HARBOR    49      20/  8/ 10 1012.1F
MICHIGAN CITY     58     120/  7/  9   N/A
BURNS HARBOR      59     130/  9/ 15 1013.5R
SOUTH LAKE BUOY   43 43   40/  2/  4 1015.6          0
4 MI NW BRIDGMAN  49 48   50/  6/  8 1013.7          1
MICHIGAN CITY     47 47                N/A           1

$$
&&




USA.gov is the U.S. government's official web portal to all federal, state and local government web resources and services.